Location: Buch
(50.1863°N, 11.0141°E)
Time: 21:36:32
(UTC+00:00)

Okean O Rocket - Pass Details

Date: 18 January 2020
Orbit: 622 x 645 km, 98.2° (Epoch: 28 February)

Event Time Altitude Azimuth Distance (km) Brightness Sun altitude
Rises 05:23:48 0° 12° (NNE) 2,972 5.1 -16.1°
Reaches altitude 10° 05:26:02 10° 10° (N) 2,056 4.2 -15.7°
Maximum altitude 05:30:29 68° 288° (WNW) 697 1.5 -15.0°
Drops below altitude 10° 05:34:53 10° 206° (SSW) 2,033 4.1 -14.4°
Sets 05:37:05 0° 204° (SSW) 2,935 4.9 -14.0°
